Temp
77 76 75 76 75 76 74 75 75 75 75 75 75 82 88 87 84 83 82 81 80 79 80 79 80 80 80 79 80 80 80 80 81 80 79 80 81 80 80 80 81 80 81 80 81 80 82 83 81 84 82 82 81 80 80 80 80 82 79 79 79 79 79
77 75 75 76 76 77 75 75 74 74 75 77 77 77 85 86 84 83 82 81 81 80 81 80 80 80 80 80 80 79 79 80 81 81 81 80 81 80 81 80 80 80 80 81 81 81 83 83 83 83 82 82 82 81 81 80 80 80 80 78 78 78 77
78 76 77 76 76 76 75 76 75 76 75 76 77 79 83 81 84 83 82 82 81 81 82 81 81 81 80 80 79 79 80 80 80 81 80 81 81 83 82 82 80 81 82 83 82 83 84 83 83 83 83 82 83 81 81 80 80 80 79 78 79 78 77
76 75 76 76 76 75 75 75 75 76 77 79 79 79 77 79 82 83 83 83 82 81 80 82 81 82 82 80 79 79 79 79 80 82 83 82 82 82 81 81 81 83 82 83 85 86 88 83 83 82 84 81 82 82 82 81 81 80 80 79 78 78 77
74 76 75 74 74 75 75 74 75 76 76 75 75 75 77 81 79 82 83 84 84 83 83 84 84 83 83 82 83 82 81 81 80 82 82 83 82 82 81 82 82 82 83 84 83 83 82 83 83 82 82 82 81 82 82 81 82 81 80 79 78 78 78
73 73 72 74 74 73 74 76 77 77 76 75 75 76 79 80 80 80 78 79 76 77 77 78 82 83 83 84 84 84 82 81 80 80 82 82 82 83 82 82 83 83 84 84 84 84 83 84 84 83 83 83 83 83 83 82 82 82 80 79 78 79 80
74 73 74 75 76 76 74 73 76 76 74 75 75 78 80 80 78 78 79 79 77 76 76 75 75 75 76 81 83 83 82 83 81 82 83 84 82 83 83 82 82 84 83 84 84 85 83 83 84 83 83 84 82 84 82 81 81 82 80 79 78 78 79
73 75 76 76 76 76 75 74 76 76 75 74 74 75 76 75 74 74 74 74 75 75 75 75 75 75 75 76 78 81 83 84 84 84 83 84 83 83 84 83 82 83 84 84 84 85 85 84 85 84 84 84 83 81 82 81 80 83 81 80 79 79 83
73 74 74 75 74 75 75 76 75 75 75 73 73 73 73 73 73 74 75 75 74 75 75 76 76 76 75 75 77 76 78 83 85 84 84 85 85 84 86 85 84 83 85 84 85 85 86 85 85 83 83 84 82 82 81 81 82 82 81 81 80 80 82
70 71 73 73 73 74 74 75 75 74 73 72 72 72 72 74 74 74 74 74 75 74 75 76 77 76 76 75 74 76 77 78 80 85 86 85 86 86 87 87 87 85 85 86 86 85 84 85 86 83 82 83 82 82 82 81 82 82 82 81 81 81 80
70 69 70 71 71 71 71 71 71 71 72 72 72 73 73 73 73 73 74 75 75 76 77 76 76 76 76 76 76 76 76 79 82 81 84 86 87 87 88 88 88 87 86 86 87 87 85 83 85 83 81 84 83 82 83 82 82 82 83 82 82 82 83
70 70 70 71 70 70 70 70 70 70 70 71 72 72 72 73 73 74 73 75 76 76 75 75 75 76 75 76 75 75 75 75 76 79 80 80 82 85 87 89 88 87 88 87 87 85 87 85 84 85 82 82 83 82 82 82 81 81 83 84 83 82 83
70 70 70 71 70 70 69 69 70 70 70 71 71 71 73 73 73 74 75 75 75 75 76 75 75 75 75 75 74 74 75 74 74 75 78 78 77 77 78 79 83 88 88 88 88 87 86 88 85 83 84 83 83 83 82 82 82 80 81 83 83 82 81
70 70 71 71 70 70 69 69 69 70 70 70 71 71 71 73 75 74 74 74 74 74 75 76 75 74 74 74 73 74 75 75 75 76 76 76 76 77 77 78 78 79 83 87 88 89 89 88 88 85 85 85 84 84 83 81 82 80 80 82 82 82 82
71 70 71 71 70 69 70 69 68 68 70 72 72 71 71 71 72 73 74 74 75 76 76 75 75 75 75 74 73 73 74 75 75 75 76 75 74 74 74 76 78 79 79 81 87 90 90 90 89 88 85 85 84 84 85 84 84 84 83 82 82 83 82
71 71 70 70 71 71 71 70 69 68 69 70 72 72 72 71 72 73 74 74 76 76 77 76 75 76 76 75 74 74 75 75 76 75 75 74 74 73 74 76 78 82 80 78 80 85 88 89 87 88 87 85 84 85 86 86 86 83 79 79 84 83 85
69 70 70 71 71 71 71 71 70 69 70 70 71 72 73 73 73 74 75 75 76 76 77 77 75 75 76 76 76 75 75 75 75 74 74 75 74 74 74 75 78 79 79 79 79 78 80 86 88 87 88 88 86 85 87 88 89 78 72 73 76 83 83
68 67 69 69 69 71 71 71 69 68 70 71 72 73 74 73 74 74 74 76 75 76 77 76 73 72 73 74 74 75 75 75 75 75 74 75 75 75 75 75 76 77 79 81 82 80 80 82 85 86 87 88 88 87 87 87 82 73 70 71 71 76 83
68 68 66 67 69 68 69 70 68 68 69 69 70 70 72 73 73 73 73 74 75 76 74 74 73 72 72 73 74 74 75 75 75 75 75 74 75 75 75 74 75 76 78 81 81 81 77 76 79 81 85 86 85 87 87 87 78 72 69 69 70 70 78
69 68 68 66 67 67 68 68 68 70 69 69 69 71 72 72 72 73 75 75 74 73 72 72 71 72 72 72 72 73 73 74 75 74 74 75 74 74 74 74 74 75 76 77 78 77 76 78 77 78 76 78 81 82 86 86 79 71 69 67 67 69 72
68 68 67 66 64 66 66 67 68 69 69 70 71 72 73 72 73 73 74 73 72 72 71 71 71 71 71 71 71 72 72 73 73 73 74 75 74 74 73 74 74 75 75 75 75 76 76 77 78 77 78 79 80 80 82 87 77 69 67 65 65 67 70
70 70 69 68 67 65 66 68 68 69 69 72 72 71 73 72 73 73 74 74 73 73 73 72 71 71 70 70 71 72 72 73 73 73 74 74 74 74 74 74 74 74 75 75 75 75 75 75 76 77 78 78 78 78 79 83 74 69 65 65 63 65 73
72 71 71 70 71 70 69 70 70 71 70 69 71 70 71 71 70 70 71 71 71 70 70 69 69 69 70 70 71 72 72 72 73 73 73 73 73 73 74 74 74 74 75 74 74 74 74 74 76 75 76 76 77 77 77 79 73 68 63 60 62 63 73
73 73 72 72 70 71 70 70 72 73 73 73 72 70 70 70 70 68 68 69 69 69 69 68 68 68 68 69 70 72 72 73 73 72 73 73 73 72 72 73 74 74 75 74 73 74 74 75 74 75 75 75 75 77 77 78 76 65 62 61 57 63 73
70 72 72 71 71 70 71 70 71 73 72 72 72 72 72 70 69 69 68 68 69 69 68 67 67 68 69 69 70 71 71 72 72 72 72 72 73 73 72 73 73 74 73 73 74 74 74 75 74 74 74 75 76 77 76 77 75 67 63 62 60 62 70
68 68 70 71 72 71 69 70 70 70 72 71 70 73 73 73 71 69 68 68 68 68 67 68 68 68 69 69 70 71 70 71 71 72 72 71 71 72 72 73 73 72 73 73 73 73 74 74 74 74 75 75 75 77 77 77 77 76 62 56 55 56 66
69 69 68 70 69 71 69 70 70 70 71 68 69 73 73 71 69 67 67 67 66 67 68 68 68 69 69 69 69 70 70 70 70 69 71 72 73 73 73 73 72 72 72 72 73 73 73 74 74 74 74 75 76 76 77 79 79 71 57 59 57 54 58
68 69 70 70 70 69 68 69 68 69 71 70 71 72 71 69 66 65 65 65 66 68 69 68 68 67 68 68 68 69 69 69 69 70 71 71 72 71 70 72 73 73 72 72 72 72 72 72 72 73 73 75 76 77 77 79 75 74 65 61 61 56 53
64 64 65 65 65 67 68 66 66 68 68 71 71 69 69 69 65 65 66 64 65 68 69 69 69 68 68 68 69 69 70 70 70 72 72 71 71 69 69 70 71 71 72 71 71 71 71 71 71 72 72 73 74 75 77 76 73 69 71 64 59 58 53
63 64 65 67 66 65 66 64 65 66 67 68 67 67 68 66 64 65 64 63 66 67 69 68 67 67 68 69 68 68 69 70 71 71 70 71 70 68 68 69 71 71 71 70 70 69 69 70 70 70 70 71 72 75 74 73 73 69 67 70 61 56 54
62 63 64 63 63 64 64 63 63 64 65 66 65 65 65 65 63 64 63 64 66 65 66 66 67 67 67 67 67 68 69 69 69 70 71 70 70 69 69 69 70 69 70 69 67 67 67 67 70 70 69 69 70 71 72 72 72 73 70 64 63 59 55
62 62 63 63 61 62 62 63 63 62 62 62 64 64 64 65 64 62 63 65 66 66 66 66 66 66 66 66 67 68 69 69 70 71 71 71 70 71 70 70 70 70 69 67 67 68 68 69 71 70 69 69 70 70 72 73 72 72 73 73 72 68 60
60 60 60 59 61 62 60 61 60 60 60 60 61 62 65 65 65 64 64 64 67 67 65 65 65 65 65 65 66 67 68 67 68 70 71 71 71 71 72 71 70 71 70 69 68 69 70 71 71 70 70 70 70 70 71 71 72 72 71 71 72 72 70
58 59 59 59 60 60 59 59 58 58 59 59 59 61 62 63 63 65 65 66 66 65 64 64 64 64 64 66 66 67 67 67 72 72 69 70 71 70 70 71 71 70 71 70 71 70 70 69 70 69 69 69 70 70 70 70 71 71 71 71 72 72 73
58 58 58 58 58 59 57 58 57 57 58 59 59 60 60 61 62 63 63 64 64 63 62 63 64 64 63 64 65 65 67 68 68 68 68 68 70 70 69 69 70 70 70 72 72 72 74 71 70 71 71 70 68 68 67 68 68 71 65 69 63 68 71
57 57 57 58 58 57 58 59 57 58 58 58 59 60 60 61 61 62 64 63 63 63 62 62 61 61 62 63 64 65 66 66 68 68 68 69 68 69 69 73 65 65 69 70 71 67 63 63 69 71 71 70 70 70 69 68 70 62 53 54 53 53 54
56 55 56 57 56 57 57 56 59 58 58 58 59 59 60 60 60 60 62 63 63 62 62 61 61 61 60 62 62 64 65 65 65 66 66 67 66 67 67 67 69 58 56 58 64 60 54 52 53 54 57 66 69 69 62 61 57 52 49 49 49 48 47
57 56 57 57 57 57 56 57 57 56 57 57 58 58 58 59 60 60 62 62 63 62 60 60 60 59 59 61 60 63 63 63 64 64 65 65 66 66 64 63 64 66 58 54 53 52 49 48 47 46 46 48 54 64 67 61 54 50 48 47 47 47 45
MSLP
1012.88 1013.08 1013.32 1013.44 1013.88 1013.96 1014.16 1014.20 1014.44 1014.68 1014.60 1015.00 1015.16 1014.64 1013.76 1013.92 1014.44 1014.92 1015.52 1015.88 1016.28 1016.68 1016.80 1016.96 1017.16 1017.28 1017.56 1017.72 1017.72 1017.76 1017.84 1018.00 1018.16 1018.52 1018.76 1018.92 1018.92 1019.12 1019.32 1019.36 1019.56 1019.68 1019.72 1019.96 1020.00 1020.04 1019.96 1019.76 1019.88 1019.92 1020.00 1020.08 1020.16 1020.20 1020.20 1020.16 1020.20 1020.20 1020.24 1020.24 1020.32 1020.44 1020.52
1012.84 1013.08 1013.44 1013.44 1013.64 1013.76 1013.92 1013.84 1014.20 1014.56 1014.48 1014.12 1014.36 1014.72 1014.16 1013.80 1014.16 1014.64 1015.12 1015.44 1015.84 1016.28 1016.52 1016.84 1017.08 1017.28 1017.44 1017.60 1017.64 1017.72 1017.92 1018.00 1018.08 1018.28 1018.56 1018.76 1018.80 1018.92 1018.96 1019.20 1019.36 1019.48 1019.52 1019.56 1019.60 1019.56 1019.60 1019.64 1019.72 1019.88 1020.04 1020.08 1020.16 1020.12 1020.16 1020.20 1020.16 1020.24 1020.36 1020.40 1020.52 1020.64 1020.60
1012.76 1013.04 1013.08 1013.28 1013.44 1013.60 1013.92 1013.92 1014.12 1014.36 1014.60 1014.52 1014.48 1014.60 1014.44 1014.04 1013.92 1014.24 1014.72 1015.20 1015.72 1016.00 1016.24 1016.60 1016.80 1017.08 1017.28 1017.48 1017.72 1017.84 1017.84 1018.00 1018.16 1018.32 1018.64 1018.80 1018.88 1018.92 1018.88 1019.00 1019.12 1019.28 1019.28 1019.24 1019.32 1019.44 1019.28 1019.48 1019.56 1019.64 1019.88 1020.12 1020.16 1020.20 1020.20 1020.20 1020.20 1020.24 1020.32 1020.44 1020.56 1020.68 1020.72
1012.88 1013.04 1012.92 1012.88 1013.12 1013.32 1013.64 1013.76 1014.08 1014.20 1014.36 1014.40 1014.48 1014.64 1015.00 1014.60 1014.12 1013.96 1014.20 1014.64 1015.24 1015.68 1016.16 1016.20 1016.44 1016.76 1017.00 1017.36 1017.64 1017.76 1017.88 1017.88 1017.96 1018.16 1018.28 1018.44 1018.72 1018.76 1018.92 1019.00 1019.00 1019.00 1019.20 1019.28 1019.12 1019.12 1019.16 1019.24 1019.52 1019.60 1019.68 1020.00 1020.16 1020.16 1020.20 1020.24 1020.20 1020.24 1020.32 1020.44 1020.60 1020.68 1020.68
1013.48 1013.28 1013.40 1013.52 1013.52 1013.52 1013.72 1014.04 1013.88 1013.80 1014.32 1014.92 1014.96 1014.76 1014.84 1014.56 1014.96 1014.12 1014.16 1014.24 1014.48 1015.00 1015.20 1015.48 1015.80 1016.12 1016.40 1016.72 1017.12 1017.36 1017.56 1017.72 1017.84 1017.88 1018.00 1018.12 1018.28 1018.48 1018.80 1019.00 1019.00 1019.00 1018.92 1018.92 1018.88 1019.00 1019.12 1019.28 1019.40 1019.60 1019.72 1019.80 1020.08 1020.12 1020.20 1020.20 1020.24 1020.20 1020.40 1020.48 1020.68 1020.68 1020.76
1014.12 1014.16 1014.00 1013.80 1013.80 1013.84 1013.72 1013.52 1013.52 1013.68 1013.96 1014.24 1014.28 1014.32 1014.36 1014.00 1014.16 1013.96 1014.12 1014.36 1014.64 1014.64 1014.72 1015.12 1015.44 1015.76 1016.20 1016.36 1016.64 1016.92 1017.12 1017.36 1017.48 1017.60 1017.80 1017.92 1018.12 1018.36 1018.56 1018.64 1018.76 1018.84 1018.88 1018.84 1018.68 1018.80 1018.92 1019.04 1019.24 1019.44 1019.68 1019.68 1019.88 1020.08 1020.08 1020.20 1020.20 1020.16 1020.32 1020.52 1020.68 1020.68 1020.76
1014.16 1014.12 1013.92 1013.72 1013.56 1013.68 1013.84 1014.08 1013.80 1013.44 1013.56 1013.92 1014.28 1014.00 1013.72 1013.48 1013.96 1014.00 1013.84 1014.28 1014.40 1014.80 1015.08 1015.48 1015.56 1015.96 1016.36 1016.20 1016.40 1016.64 1017.00 1017.20 1017.32 1017.48 1017.52 1017.72 1017.84 1018.04 1018.16 1018.24 1018.32 1018.44 1018.48 1018.48 1018.64 1018.56 1018.80 1018.92 1019.00 1019.12 1019.32 1019.52 1019.68 1019.88 1020.00 1020.12 1020.24 1020.12 1020.24 1020.48 1020.64 1020.64 1020.60
1014.28 1014.20 1014.04 1014.04 1014.04 1013.88 1013.92 1014.08 1013.80 1013.60 1013.72 1014.32 1014.88 1014.68 1014.48 1014.68 1014.88 1015.20 1015.52 1015.80 1015.88 1015.88 1016.08 1016.32 1016.40 1016.36 1016.24 1016.32 1016.44 1016.80 1016.84 1016.88 1017.00 1017.16 1017.32 1017.56 1017.68 1017.84 1017.84 1017.92 1018.00 1018.00 1018.12 1018.44 1018.36 1018.32 1018.52 1018.68 1018.76 1018.84 1019.04 1019.32 1019.52 1019.64 1019.72 1019.84 1019.96 1020.04 1020.16 1020.48 1020.64 1020.68 1020.52
1014.52 1014.48 1014.64 1014.56 1014.56 1014.44 1014.08 1013.88 1013.88 1013.84 1014.00 1014.64 1015.12 1015.12 1015.04 1015.00 1015.32 1015.52 1015.52 1015.80 1016.20 1016.72 1017.24 1016.84 1016.64 1016.48 1016.32 1016.32 1016.64 1016.88 1017.00 1016.76 1016.84 1017.04 1017.28 1017.48 1017.56 1017.64 1017.56 1017.60 1017.60 1017.60 1017.84 1018.08 1018.12 1018.04 1018.12 1018.32 1018.44 1018.68 1018.84 1019.08 1019.32 1019.48 1019.60 1019.64 1019.72 1019.76 1019.96 1020.24 1020.40 1020.56 1020.48
1015.20 1015.16 1015.00 1014.92 1014.96 1014.92 1014.72 1014.44 1014.24 1014.24 1014.48 1014.60 1014.68 1014.84 1014.92 1014.92 1014.92 1015.00 1014.68 1014.68 1015.12 1015.80 1016.24 1016.48 1016.44 1016.40 1016.48 1016.40 1016.52 1016.64 1016.68 1016.96 1016.76 1016.84 1017.08 1017.40 1017.32 1017.40 1017.28 1017.24 1017.28 1017.24 1017.48 1017.60 1017.64 1017.92 1017.88 1017.92 1018.16 1018.44 1018.72 1018.92 1019.12 1019.24 1019.36 1019.48 1019.52 1019.56 1019.64 1019.84 1020.00 1020.16 1020.28
1015.80 1015.72 1015.64 1015.56 1015.60 1015.60 1015.44 1015.28 1015.20 1015.08 1014.84 1014.80 1014.88 1014.80 1014.76 1014.84 1015.08 1015.20 1015.48 1015.44 1015.60 1015.80 1015.92 1016.20 1016.28 1016.44 1016.56 1016.64 1016.84 1017.12 1017.16 1017.08 1016.96 1016.84 1016.88 1017.00 1017.04 1017.12 1017.00 1016.96 1016.96 1016.96 1017.16 1017.24 1017.44 1017.44 1017.64 1017.88 1017.88 1018.24 1018.60 1018.80 1018.92 1019.04 1019.12 1019.16 1019.28 1019.40 1019.44 1019.52 1019.56 1019.72 1019.84
1015.96 1016.08 1016.16 1016.00 1016.00 1015.92 1016.00 1015.92 1015.72 1015.56 1015.48 1015.32 1015.16 1015.04 1014.92 1014.96 1015.04 1015.28 1015.76 1015.92 1015.44 1015.60 1015.92 1016.08 1016.12 1016.24 1016.40 1016.36 1016.56 1016.80 1017.20 1017.52 1017.88 1017.84 1017.20 1017.12 1017.04 1016.96 1016.84 1016.60 1016.56 1016.72 1016.80 1016.88 1017.20 1017.24 1017.28 1017.56 1017.84 1018.00 1018.32 1018.48 1018.56 1018.64 1018.76 1018.80 1018.88 1019.08 1019.16 1019.20 1019.32 1019.48 1019.52
1016.40 1016.40 1016.32 1016.24 1016.20 1016.20 1016.00 1015.92 1015.96 1015.84 1015.72 1015.64 1015.60 1015.52 1015.36 1015.28 1015.32 1015.40 1015.48 1015.60 1015.44 1015.40 1015.64 1015.76 1015.88 1016.12 1016.52 1016.68 1016.72 1016.80 1016.84 1017.20 1018.40 1018.84 1017.32 1016.76 1016.84 1016.80 1016.88 1017.00 1016.88 1016.60 1016.44 1016.40 1016.72 1017.00 1017.24 1017.24 1017.48 1017.64 1017.88 1018.08 1018.20 1018.40 1018.52 1018.60 1018.60 1018.80 1018.92 1018.96 1019.04 1019.24 1019.44
1016.48 1016.48 1016.32 1016.24 1016.32 1016.44 1016.52 1016.44 1016.24 1016.04 1015.88 1015.80 1015.84 1015.72 1015.72 1015.60 1015.56 1015.64 1015.60 1015.64 1015.60 1015.36 1015.36 1015.56 1015.92 1016.24 1016.48 1016.76 1017.00 1017.20 1017.24 1017.32 1017.92 1018.44 1017.84 1016.88 1016.72 1016.72 1016.68 1016.72 1016.60 1016.76 1016.72 1016.16 1016.16 1016.52 1016.72 1017.00 1017.12 1017.28 1017.44 1017.72 1017.88 1017.92 1018.12 1018.36 1018.52 1018.60 1018.68 1018.76 1018.84 1019.04 1019.16
1016.48 1016.52 1016.44 1016.44 1016.52 1016.60 1016.64 1016.80 1016.72 1016.52 1016.20 1015.96 1015.84 1015.96 1015.92 1015.92 1015.88 1015.76 1015.64 1015.56 1015.64 1015.68 1015.68 1015.60 1015.88 1016.16 1016.44 1016.64 1016.84 1016.80 1016.52 1016.44 1016.88 1017.72 1017.80 1016.92 1016.64 1016.56 1016.44 1016.40 1016.32 1016.40 1016.64 1016.72 1016.24 1015.76 1015.96 1016.20 1016.52 1016.88 1017.20 1017.28 1017.48 1017.68 1017.72 1018.04 1018.24 1018.28 1018.44 1018.68 1018.68 1018.68 1018.92
1016.72 1016.64 1016.72 1016.76 1016.68 1016.56 1016.60 1016.68 1016.76 1016.72 1016.48 1016.28 1016.20 1016.16 1016.16 1016.12 1016.04 1016.00 1015.96 1015.84 1015.64 1015.56 1015.48 1015.48 1015.84 1015.92 1015.96 1016.28 1016.44 1016.36 1016.12 1016.08 1016.48 1017.00 1017.08 1016.80 1016.56 1016.44 1016.24 1016.24 1016.24 1016.08 1016.36 1016.64 1016.64 1016.32 1015.76 1015.76 1016.04 1016.32 1016.68 1017.04 1017.16 1017.24 1017.44 1017.60 1017.60 1017.68 1017.84 1018.04 1018.32 1018.52 1018.52
1017.36 1017.24 1016.96 1016.80 1016.76 1016.84 1016.80 1016.80 1016.76 1016.72 1016.68 1016.68 1016.52 1016.32 1016.20 1016.20 1016.12 1016.04 1016.04 1015.92 1015.76 1015.68 1015.60 1015.72 1016.16 1016.20 1016.04 1016.16 1016.08 1016.12 1016.20 1016.52 1016.84 1016.88 1016.88 1016.64 1016.52 1016.40 1016.32 1016.20 1016.16 1016.12 1016.00 1016.16 1016.32 1016.44 1016.44 1016.00 1015.84 1016.04 1016.16 1016.44 1016.72 1016.96 1017.04 1017.04 1017.00 1017.20 1017.44 1017.64 1017.80 1018.04 1018.32
1017.84 1017.76 1017.56 1017.32 1017.12 1016.96 1017.04 1017.16 1017.16 1017.04 1017.00 1016.96 1016.76 1016.56 1016.40 1016.36 1016.32 1016.28 1016.36 1016.12 1016.08 1016.00 1015.80 1015.96 1016.28 1016.40 1016.48 1016.40 1016.52 1016.52 1016.64 1016.80 1016.68 1016.64 1016.56 1016.44 1016.40 1016.32 1016.28 1016.20 1016.24 1016.12 1015.88 1015.68 1015.76 1015.96 1016.12 1016.36 1016.12 1015.72 1015.80 1015.96 1016.20 1016.48 1016.56 1016.56 1016.48 1016.76 1017.04 1017.24 1017.48 1017.64 1017.88
1018.04 1018.00 1017.92 1017.64 1017.48 1017.28 1017.16 1017.24 1017.28 1017.24 1017.12 1017.08 1017.00 1016.88 1016.64 1016.48 1016.56 1016.60 1016.48 1016.48 1016.36 1016.24 1016.40 1016.60 1016.80 1017.16 1017.24 1017.20 1016.80 1016.72 1016.64 1016.56 1016.64 1016.64 1016.48 1016.24 1015.96 1015.92 1016.08 1016.32 1016.32 1016.16 1016.00 1015.88 1015.52 1015.56 1016.00 1016.28 1016.28 1016.24 1015.88 1015.72 1016.00 1016.20 1016.16 1016.28 1016.16 1016.40 1016.56 1016.76 1016.96 1017.24 1017.48
1018.08 1018.16 1018.08 1017.92 1017.72 1017.52 1017.28 1017.08 1017.16 1017.12 1017.04 1017.04 1016.96 1016.76 1016.60 1016.48 1016.56 1016.48 1016.40 1016.52 1016.52 1016.68 1016.80 1016.96 1017.04 1017.12 1017.20 1017.12 1017.04 1016.84 1016.76 1016.72 1016.72 1016.64 1016.36 1016.00 1015.84 1015.76 1015.88 1016.16 1016.32 1016.12 1015.88 1015.68 1015.52 1015.72 1015.96 1016.08 1016.24 1016.20 1016.16 1016.16 1016.12 1016.00 1015.88 1016.00 1015.96 1016.12 1016.28 1016.44 1016.56 1016.72 1017.04
1018.16 1018.32 1018.36 1018.24 1018.08 1017.80 1017.52 1017.28 1017.16 1017.16 1017.12 1017.08 1017.04 1016.96 1016.84 1016.80 1016.64 1016.56 1016.68 1016.76 1016.88 1016.88 1017.00 1017.08 1017.20 1017.28 1017.28 1017.28 1017.12 1017.04 1016.96 1016.84 1016.72 1016.60 1016.32 1016.08 1015.96 1015.84 1015.76 1015.88 1016.04 1016.00 1015.80 1015.76 1015.84 1015.92 1015.96 1016.00 1016.04 1016.04 1016.08 1016.04 1016.00 1016.20 1016.20 1015.84 1015.68 1015.96 1016.12 1016.24 1016.36 1016.40 1016.64
1017.84 1018.08 1018.40 1018.32 1018.24 1018.04 1017.80 1017.56 1017.44 1017.36 1017.24 1016.96 1017.08 1017.24 1017.12 1017.16 1016.92 1016.96 1017.08 1016.96 1017.16 1017.16 1017.12 1017.16 1017.28 1017.36 1017.36 1017.40 1017.24 1017.12 1016.96 1016.84 1016.68 1016.48 1016.24 1016.08 1016.00 1016.04 1015.96 1015.72 1015.64 1015.68 1015.60 1015.68 1015.80 1015.84 1015.92 1016.00 1016.00 1016.16 1016.20 1016.04 1016.00 1016.08 1016.04 1015.76 1015.72 1015.84 1015.92 1016.00 1016.12 1016.28 1016.60
1017.52 1017.84 1017.96 1018.00 1017.96 1018.00 1017.68 1017.44 1017.32 1017.24 1017.12 1017.12 1017.28 1017.44 1017.48 1017.32 1017.20 1017.24 1017.28 1017.44 1017.48 1017.48 1017.56 1017.56 1017.64 1017.60 1017.48 1017.44 1017.28 1017.16 1017.00 1016.84 1016.76 1016.64 1016.44 1016.24 1016.20 1016.28 1016.24 1016.04 1015.80 1015.68 1015.56 1015.88 1015.96 1016.08 1016.20 1016.32 1016.40 1016.40 1016.48 1016.48 1016.40 1016.36 1016.20 1015.88 1015.56 1015.76 1016.08 1016.16 1016.24 1016.80 1017.00
1017.36 1017.68 1017.88 1017.96 1017.88 1017.84 1017.72 1017.56 1017.40 1017.24 1017.28 1017.36 1017.36 1017.52 1017.48 1017.48 1017.52 1017.56 1017.64 1017.64 1017.64 1017.76 1017.80 1017.84 1017.92 1017.80 1017.72 1017.64 1017.36 1017.16 1017.04 1016.88 1016.80 1016.80 1016.68 1016.52 1016.48 1016.36 1016.24 1016.04 1015.88 1015.92 1015.80 1016.08 1016.20 1016.24 1016.08 1016.00 1016.16 1016.12 1016.16 1016.24 1016.28 1016.24 1016.36 1016.08 1015.68 1015.72 1016.08 1016.64 1016.84 1017.16 1017.24
1017.92 1018.04 1018.08 1018.12 1018.20 1018.28 1018.12 1018.00 1017.76 1017.64 1017.56 1017.64 1017.80 1017.56 1017.48 1017.68 1017.80 1017.92 1018.00 1017.88 1017.84 1017.88 1017.96 1017.92 1017.80 1017.68 1017.64 1017.52 1017.28 1017.12 1017.04 1016.88 1016.80 1016.80 1016.76 1016.72 1016.64 1016.48 1016.44 1016.32 1016.20 1016.04 1015.92 1015.96 1016.00 1016.08 1016.00 1015.96 1016.08 1016.04 1015.96 1015.92 1015.96 1015.96 1016.16 1016.12 1015.92 1015.92 1016.04 1016.28 1016.88 1017.40 1017.76
1018.48 1018.52 1018.48 1018.36 1018.24 1018.24 1018.28 1018.16 1018.12 1018.12 1018.12 1018.20 1018.12 1017.68 1017.64 1017.80 1018.04 1018.28 1018.32 1018.20 1018.00 1018.12 1018.16 1018.00 1017.72 1017.48 1017.28 1017.20 1017.12 1017.04 1017.04 1016.96 1016.96 1016.80 1016.72 1016.72 1016.60 1016.44 1016.32 1016.12 1016.08 1016.08 1016.08 1016.00 1015.96 1016.00 1015.96 1015.96 1015.96 1016.08 1016.00 1015.84 1015.92 1015.96 1015.92 1016.00 1015.92 1015.84 1016.00 1016.36 1016.60 1017.04 1017.52
1018.56 1018.64 1018.80 1018.84 1018.84 1018.60 1018.68 1018.68 1018.72 1018.72 1018.52 1018.40 1018.24 1018.08 1018.08 1018.16 1018.36 1018.56 1018.48 1018.36 1018.40 1018.40 1018.24 1017.92 1017.72 1017.48 1017.32 1017.16 1017.08 1017.00 1016.96 1016.92 1016.92 1016.96 1016.72 1016.52 1016.48 1016.28 1016.20 1016.12 1016.08 1015.96 1016.00 1016.12 1016.00 1016.00 1016.04 1016.04 1015.96 1015.96 1015.92 1015.80 1015.84 1015.96 1015.96 1016.00 1016.00 1016.08 1016.12 1016.12 1016.36 1016.80 1017.16
1019.00 1019.00 1018.88 1018.96 1019.04 1019.12 1019.24 1019.28 1019.20 1019.00 1018.76 1018.52 1018.48 1018.44 1018.40 1018.48 1018.72 1018.72 1018.60 1018.60 1018.68 1018.44 1018.04 1017.92 1017.84 1017.68 1017.52 1017.36 1017.24 1017.16 1017.04 1016.96 1016.80 1016.72 1016.64 1016.52 1016.44 1016.48 1016.40 1016.12 1016.00 1016.04 1016.00 1015.96 1016.04 1016.16 1016.16 1016.08 1016.12 1016.16 1016.00 1015.80 1015.68 1015.72 1015.88 1015.84 1016.12 1016.12 1015.84 1015.76 1015.68 1016.00 1016.44
1019.64 1019.76 1019.76 1019.76 1020.00 1019.88 1019.84 1019.96 1019.84 1019.60 1019.32 1019.04 1018.92 1018.80 1018.72 1018.72 1018.92 1018.88 1018.76 1018.96 1018.80 1018.32 1018.04 1017.92 1017.84 1017.76 1017.60 1017.48 1017.40 1017.32 1017.12 1016.92 1016.80 1016.64 1016.48 1016.44 1016.32 1016.44 1016.40 1016.24 1016.24 1016.12 1016.08 1016.16 1016.20 1016.24 1016.32 1016.20 1016.12 1016.16 1016.16 1016.00 1015.88 1015.76 1015.72 1015.76 1015.92 1015.56 1015.36 1015.00 1014.84 1014.64 1015.24
1019.76 1019.88 1019.92 1020.00 1020.28 1020.40 1020.28 1020.36 1020.20 1020.04 1019.72 1019.52 1019.36 1019.20 1019.08 1019.04 1019.16 1019.04 1019.00 1019.08 1018.60 1018.36 1018.20 1018.08 1018.00 1017.92 1017.84 1017.72 1017.60 1017.44 1017.20 1016.96 1016.68 1016.48 1016.40 1016.32 1016.20 1016.20 1016.28 1016.24 1016.16 1016.12 1016.20 1016.24 1016.16 1016.24 1016.40 1016.36 1016.24 1016.20 1016.24 1016.20 1016.00 1015.80 1015.68 1015.52 1015.28 1014.96 1014.52 1014.04 1014.08 1014.72 1015.32
1019.92 1020.16 1020.32 1020.48 1020.60 1020.52 1020.52 1020.60 1020.56 1020.40 1020.20 1019.96 1019.76 1019.56 1019.44 1019.28 1019.36 1019.24 1019.24 1018.88 1018.56 1018.52 1018.52 1018.44 1018.28 1018.12 1018.04 1017.92 1017.72 1017.52 1017.28 1016.96 1016.80 1016.60 1016.36 1016.16 1016.12 1016.28 1016.24 1016.16 1016.12 1016.28 1016.12 1016.16 1016.12 1016.04 1016.24 1016.28 1016.12 1016.12 1016.08 1016.12 1016.08 1015.88 1015.60 1015.28 1015.08 1014.88 1014.56 1014.52 1014.76 1014.72 1014.76
1019.92 1020.12 1020.32 1020.52 1020.64 1020.68 1020.76 1020.72 1020.68 1020.60 1020.60 1020.36 1020.08 1019.92 1019.68 1019.52 1019.44 1019.56 1019.28 1018.84 1018.72 1018.56 1018.56 1018.56 1018.56 1018.48 1018.32 1018.08 1017.84 1017.64 1017.32 1017.20 1016.96 1016.72 1016.44 1016.16 1016.04 1016.08 1015.96 1015.92 1015.92 1016.04 1016.12 1016.16 1016.08 1016.00 1016.12 1016.12 1015.96 1015.92 1015.96 1016.00 1015.84 1015.72 1015.44 1015.12 1014.96 1014.88 1014.64 1014.40 1014.24 1014.12 1014.08
1019.96 1020.12 1020.40 1020.68 1020.68 1020.72 1020.80 1020.92 1021.00 1020.92 1020.80 1020.68 1020.32 1020.16 1019.96 1019.84 1019.64 1019.44 1019.20 1019.00 1018.80 1018.68 1018.64 1018.72 1018.68 1018.68 1018.48 1018.32 1018.08 1017.76 1017.52 1017.36 1017.16 1016.84 1016.52 1016.28 1016.08 1015.92 1015.80 1015.64 1015.72 1015.76 1015.88 1016.00 1016.04 1016.04 1016.00 1015.88 1015.88 1015.96 1016.00 1015.92 1015.72 1015.48 1015.28 1015.16 1015.00 1014.92 1014.76 1014.40 1014.12 1014.00 1014.00
1019.80 1020.00 1020.24 1020.36 1020.52 1020.64 1020.80 1020.88 1020.96 1020.96 1020.84 1020.72 1020.44 1020.20 1020.04 1019.92 1019.76 1019.48 1019.28 1019.12 1018.96 1018.84 1018.84 1018.88 1018.80 1018.76 1018.64 1018.44 1018.16 1017.92 1017.64 1017.44 1017.08 1016.80 1016.68 1016.44 1016.24 1016.16 1015.88 1015.60 1015.60 1015.84 1015.92 1015.92 1015.88 1015.88 1015.80 1015.72 1015.72 1015.80 1015.84 1015.80 1015.52 1015.36 1015.12 1015.00 1014.96 1014.88 1014.80 1014.52 1014.28 1014.12 1014.00
1019.68 1019.92 1020.12 1020.40 1020.60 1020.72 1020.96 1020.92 1020.96 1020.84 1020.72 1020.52 1020.28 1020.12 1020.00 1019.88 1019.68 1019.52 1019.36 1019.24 1019.08 1019.00 1019.04 1019.04 1018.92 1018.84 1018.76 1018.52 1018.28 1018.00 1017.56 1017.36 1017.12 1016.92 1016.80 1016.60 1016.28 1016.04 1015.92 1015.96 1015.96 1015.92 1015.76 1015.32 1015.16 1015.16 1015.28 1015.36 1015.32 1015.24 1015.12 1015.08 1015.24 1015.32 1015.28 1015.04 1015.00 1014.64 1014.28 1014.28 1014.24 1014.24 1014.20
1019.60 1019.92 1020.16 1020.32 1020.48 1020.64 1020.72 1020.76 1020.72 1020.64 1020.52 1020.40 1020.28 1020.20 1020.16 1020.04 1019.84 1019.64 1019.44 1019.28 1019.12 1019.04 1019.08 1019.04 1019.00 1019.00 1018.92 1018.76 1018.56 1018.24 1017.92 1017.72 1017.48 1017.12 1016.80 1016.56 1016.48 1016.36 1016.08 1015.60 1015.56 1015.52 1015.64 1015.44 1014.92 1014.76 1014.76 1014.76 1014.88 1014.68 1014.68 1014.88 1014.76 1014.68 1014.96 1014.84 1014.36 1014.20 1014.40 1014.36 1014.20 1014.04 1014.00
1019.76 1019.92 1020.12 1020.20 1020.36 1020.56 1020.60 1020.56 1020.52 1020.56 1020.56 1020.48 1020.36 1020.32 1020.24 1020.16 1019.96 1019.76 1019.56 1019.36 1019.20 1019.08 1019.08 1019.00 1019.00 1018.88 1018.84 1018.72 1018.64 1018.48 1018.24 1018.00 1017.80 1017.52 1017.28 1016.96 1016.60 1016.36 1016.36 1016.24 1015.84 1015.56 1015.40 1015.24 1015.00 1014.76 1014.68 1014.80 1014.76 1014.56 1014.48 1014.64 1014.68 1014.32 1014.12 1014.08 1014.04 1014.16 1014.20 1014.20 1014.04 1013.92 1013.92
1019.40 1019.60 1019.80 1019.92 1020.16 1020.28 1020.40 1020.52 1020.56 1020.64 1020.64 1020.52 1020.40 1020.32 1020.20 1020.12 1019.92 1019.76 1019.52 1019.36 1019.20 1019.04 1018.92 1018.92 1018.96 1018.92 1018.76 1018.60 1018.48 1018.40 1018.36 1018.24 1018.08 1017.80 1017.60 1017.28 1016.88 1016.52 1016.44 1016.40 1016.36 1015.96 1015.48 1015.24 1015.08 1014.88 1014.72 1014.60 1014.52 1014.44 1014.48 1014.56 1014.60 1014.52 1014.20 1014.00 1013.92 1013.84 1013.88 1013.92 1013.84 1013.80 1013.92
Wind_Speed
10 10 9 9 9 8 9 6 2 4 7 8 7 7 15 12 13 13 12 13 12 11 9 8 10 8 9 7 7 6 6 6 6 5 5 5 6 6 5 4 6 6 6 5 5 5 6 6 4 6 4 5 4 3 3 3 3 4 3 3 2 2 3
10 10 9 8 10 10 12 12 7 5 8 10 10 7 7 10 13 13 14 14 13 13 11 8 10 9 8 7 6 6 6 6 6 5 4 5 5 5 6 5 5 6 5 5 4 3 6 7 5 6 5 5 4 4 4 3 4 4 4 3 3 2 2
10 9 10 10 10 9 11 11 9 8 9 8 7 7 8 3 12 14 15 14 14 12 10 9 10 9 7 7 5 6 6 5 5 6 6 5 5 6 6 5 4 6 6 6 5 4 4 4 6 7 6 6 5 4 4 4 3 3 3 3 3 3 2
6 5 4 5 7 5 6 6 9 9 9 9 8 4 7 3 1 9 13 15 15 13 13 10 10 10 8 8 7 5 6 6 6 6 6 5 6 5 5 5 5 5 5 6 6 6 4 3 5 6 7 6 5 5 5 5 4 3 3 3 3 3 3
8 5 4 3 3 4 6 8 8 7 5 8 7 6 7 5 5 4 8 13 14 15 14 13 10 9 9 9 7 6 8 7 6 6 6 6 5 5 5 5 6 5 5 5 5 6 4 5 4 5 5 6 5 6 5 4 5 4 4 3 3 3 4
7 5 3 3 3 2 2 1 6 7 12 13 11 12 9 6 7 10 9 10 9 10 8 5 7 7 11 9 8 8 7 6 6 5 6 6 6 7 6 5 7 5 6 6 5 5 6 7 7 5 5 6 5 7 6 5 5 5 4 4 4 3 4
7 4 3 5 4 4 5 2 1 5 7 7 4 1 6 7 10 8 9 9 10 12 10 7 8 5 1 3 7 8 9 9 7 7 7 7 6 8 7 6 6 7 5 6 6 5 6 7 8 7 6 5 4 6 6 5 5 5 4 4 4 4 4
9 7 11 10 10 10 5 4 6 6 8 8 4 3 7 10 10 10 12 12 11 9 6 3 1 3 5 5 3 1 5 10 8 8 6 8 6 8 9 7 6 7 6 7 7 7 6 7 6 6 7 6 5 4 5 6 6 6 5 6 6 5 5
10 12 12 12 12 11 10 7 7 7 8 10 7 7 9 9 9 9 7 7 8 7 2 2 2 1 3 3 1 3 4 3 9 8 7 8 7 7 9 8 7 6 9 6 7 7 7 7 6 7 7 7 6 6 4 6 7 6 6 7 7 7 6
9 10 11 12 11 11 10 9 8 7 8 7 6 6 7 7 9 7 7 8 9 11 7 5 6 4 3 2 2 3 3 2 1 7 10 8 8 8 8 8 7 7 8 8 6 7 6 7 7 6 7 8 7 8 6 6 7 7 6 7 7 7 7
8 8 9 11 11 10 10 11 10 8 7 6 6 5 5 6 6 6 5 4 6 6 7 7 3 2 2 2 1 1 3 4 3 3 4 9 8 8 7 7 8 8 7 7 7 6 7 6 7 7 6 9 8 8 9 7 7 7 7 6 7 8 8
9 9 8 10 9 9 9 8 8 8 8 7 7 6 4 4 5 7 9 5 6 7 7 6 5 5 5 5 4 3 2 5 8 6 2 5 3 2 3 6 9 8 8 8 7 6 7 8 7 8 8 7 7 6 8 7 7 8 8 7 5 7 8
8 8 9 10 10 9 8 9 9 8 8 8 8 8 6 5 5 4 5 6 3 2 3 6 6 3 3 2 1 2 3 4 2 8 4 4 3 3 3 5 7 4 9 10 8 7 5 8 8 8 8 8 7 6 6 7 7 7 7 7 7 6 6
10 10 11 10 11 11 11 9 8 8 8 8 8 8 9 8 7 7 7 7 6 4 2 4 5 4 4 4 4 3 4 5 4 8 4 2 4 3 3 1 1 3 8 6 12 11 9 7 10 8 9 9 9 9 7 7 6 6 6 7 6 7 7
10 11 11 12 11 9 10 9 7 8 8 7 9 9 9 8 7 5 5 5 5 5 4 5 5 6 6 6 5 6 5 7 8 5 5 3 4 4 4 5 4 2 1 7 7 11 12 9 9 10 9 10 10 9 8 8 8 7 7 7 8 7 7
11 11 12 12 11 11 9 8 6 5 5 7 8 7 7 7 7 6 6 6 6 6 6 3 2 3 6 7 6 5 4 3 4 4 3 3 3 4 4 4 4 6 5 3 6 6 8 11 8 11 12 11 11 11 10 9 8 10 15 11 8 8 9
11 11 11 10 10 10 9 9 8 7 8 9 8 5 5 7 7 7 8 8 7 8 7 7 5 5 4 4 4 4 5 5 6 6 6 5 5 4 4 4 5 6 7 7 5 3 6 7 11 9 11 12 12 12 11 10 9 15 16 16 16 11 9
9 8 9 10 8 8 9 9 8 8 8 9 9 10 8 6 7 7 8 7 8 8 8 9 8 8 6 5 4 2 4 4 5 5 6 6 5 5 5 5 4 4 7 9 9 7 2 4 7 9 9 11 12 12 11 11 13 16 17 17 17 15 11
8 7 7 6 7 7 6 6 6 5 5 5 8 7 7 6 6 6 6 7 7 7 8 8 8 6 5 5 6 5 3 2 3 4 5 5 5 5 4 3 3 2 2 5 5 5 4 2 3 5 6 8 11 11 11 11 14 17 17 18 19 19 15
9 8 7 5 5 5 5 5 4 5 5 5 5 6 6 5 5 4 6 8 7 7 7 6 6 6 6 6 5 5 5 4 4 2 1 2 2 2 2 2 2 2 2 3 2 3 3 2 3 4 3 3 4 7 10 10 12 17 17 17 19 20 17
11 9 6 5 4 4 5 5 5 5 5 5 6 5 6 7 6 6 7 7 7 6 5 5 5 6 5 5 4 3 3 2 2 2 3 2 1 2 2 2 2 1 1 0 2 4 3 4 4 4 4 4 2 1 3 6 12 15 17 17 18 19 17
9 9 8 5 5 4 4 4 4 5 5 4 6 6 6 6 6 5 5 6 7 6 6 6 5 4 4 4 4 5 4 4 3 3 3 3 2 2 2 2 2 2 0 1 1 2 4 5 3 4 4 4 4 4 4 2 3 7 14 17 17 18 12
7 8 8 6 5 4 4 5 4 3 3 5 4 6 6 5 6 6 6 4 5 5 4 4 5 5 5 3 3 4 4 4 4 4 4 4 5 5 5 4 3 2 1 1 1 1 2 2 3 4 5 5 4 4 5 7 9 5 7 11 14 9 7
7 9 8 6 4 4 4 5 6 5 7 6 5 4 6 6 6 6 5 5 4 4 4 3 3 3 3 3 3 3 3 4 4 4 3 5 6 6 5 4 3 2 2 2 2 2 1 1 2 2 2 4 4 3 4 7 9 13 9 2 6 6 7
8 9 8 6 5 4 6 6 7 5 5 8 8 5 5 6 7 6 6 4 5 4 5 5 4 4 4 3 3 3 3 3 4 3 3 3 3 3 4 4 3 3 2 1 2 3 3 2 1 2 3 3 4 4 6 6 7 10 13 13 8 1 3
8 8 7 6 7 6 6 7 8 7 8 8 7 7 7 7 6 5 5 5 4 5 5 6 5 4 4 3 3 1 2 2 3 3 3 2 2 3 3 2 1 2 2 2 2 2 3 3 3 3 3 3 2 4 3 4 4 5 10 10 9 8 3
8 7 6 7 8 9 7 6 7 7 7 6 6 7 6 6 6 4 4 4 4 5 4 4 4 4 4 5 4 3 0 1 0 2 4 2 0 2 2 3 3 1 1 3 2 2 3 3 4 4 4 3 4 4 4 3 4 5 11 7 7 8 8
8 7 7 7 10 8 7 7 8 8 8 6 8 7 7 6 6 4 4 4 4 5 4 4 5 4 4 4 4 4 5 4 3 3 3 3 2 3 4 3 2 3 2 2 2 3 4 3 2 3 4 4 4 4 3 1 9 5 5 4 3 7 14
7 6 6 7 10 10 9 7 8 8 6 7 8 6 6 5 4 4 4 5 6 5 5 6 5 5 5 3 2 5 6 7 4 4 3 3 3 3 4 4 3 2 2 3 3 3 4 4 4 4 4 3 2 1 1 3 4 2 4 11 13 15 17
6 6 6 7 8 7 7 6 6 7 6 7 7 7 7 6 5 4 4 4 6 5 6 6 5 5 5 4 4 5 6 7 6 6 4 5 5 5 4 5 3 3 1 1 1 2 5 5 4 4 4 3 3 1 4 4 5 9 15 15 15 6 7
6 5 5 6 7 5 4 5 5 6 6 6 7 7 6 6 6 6 5 5 4 5 4 5 6 7 6 6 6 6 6 5 5 6 8 5 5 5 5 5 3 4 3 2 4 3 4 5 4 4 4 3 3 3 4 5 6 7 10 11 5 4 7
7 6 5 4 3 3 3 3 4 5 5 5 5 5 5 5 6 6 6 5 5 5 5 6 6 6 6 6 6 7 6 6 6 7 7 7 4 4 6 6 5 4 3 4 4 4 3 5 5 3 2 3 3 4 4 5 5 5 5 3 4 5 8
6 5 4 3 2 2 2 2 2 3 3 4 3 4 4 6 5 6 5 5 6 5 6 5 5 5 5 5 7 7 7 7 6 6 7 6 6 6 6 6 5 5 4 4 4 4 3 1 1 3 2 2 2 3 3 5 5 4 3 2 3 4 3
4 5 4 4 2 3 2 2 3 3 3 3 3 3 3 3 4 4 5 5 4 4 4 5 5 6 6 7 7 7 7 7 11 10 7 7 7 6 5 3 2 3 3 3 4 4 2 2 2 2 3 4 3 2 3 4 3 3 4 5 4 3 3
5 5 4 4 4 4 3 2 3 4 4 4 3 3 3 3 3 3 4 5 5 4 4 4 4 5 7 8 7 7 7 6 5 5 5 5 6 6 5 5 5 6 6 5 2 2 4 4 4 3 3 4 4 5 6 6 5 4 4 4 4 4 3
4 5 5 4 4 3 2 1 3 4 3 2 3 4 4 5 4 5 5 4 4 4 4 4 3 3 5 5 7 8 8 8 9 8 8 7 6 6 7 8 11 10 7 7 11 11 7 5 5 4 3 4 5 5 6 7 6 5 5 5 7 10 11
5 4 4 3 3 1 1 3 2 3 4 4 4 4 4 4 4 4 5 5 5 4 5 5 5 4 3 3 3 6 8 8 8 8 8 8 7 6 6 7 5 9 11 10 12 13 14 9 10 10 8 5 5 6 11 13 13 12 12 10 11 12 12
4 4 3 3 2 2 1 2 3 3 3 3 3 4 4 4 4 4 4 4 5 5 4 4 4 5 5 4 3 3 4 6 8 9 9 9 8 6 5 5 6 6 8 12 9 10 10 10 11 12 10 9 9 7 7 8 11 12 11 10 9 9 8
Wind_Direction
153 171 167 164 174 165 168 196 163 140 156 191 265 273 177 167 159 160 162 166 168 169 173 166 173 169 176 176 179 179 173 165 169 161 166 165 166 163 169 172 161 169 174 176 188 176 189 200 180 184 168 173 173 171 169 169 164 155 157 154 146 134 155
157 168 166 175 179 162 163 191 196 173 184 200 198 256 242 166 160 161 164 167 169 170 173 166 170 176 178 180 177 177 174 173 168 164 153 164 163 169 173 182 171 171 171 179 193 198 181 196 173 179 165 171 176 170 176 185 173 166 163 160 154 164 143
154 174 176 178 178 172 155 163 177 183 185 199 217 219 242 188 168 163 163 165 166 165 170 166 171 176 175 178 177 181 179 175 167 166 166 172 175 175 177 183 183 175 180 182 189 197 194 177 173 173 165 171 176 180 179 190 197 176 172 171 165 169 192
94 105 98 128 152 165 154 157 167 177 184 197 208 201 1 1 95 156 163 164 164 164 170 170 170 173 174 177 179 183 183 184 179 175 179 170 179 178 175 184 193 185 176 182 186 189 177 167 157 175 170 166 181 187 183 189 194 185 181 186 174 175 202
61 60 47 53 89 112 138 180 195 181 141 58 79 149 197 186 172 128 155 166 165 168 170 171 170 170 175 173 181 183 185 186 187 180 181 182 176 181 179 187 192 190 193 183 171 177 178 174 167 171 176 175 174 191 189 187 190 184 179 184 192 197 203
86 68 46 56 90 73 49 65 159 181 170 170 175 178 191 165 146 130 118 123 118 125 126 142 170 166 175 176 182 181 180 190 187 188 187 184 180 185 191 192 185 190 185 194 184 188 179 175 177 176 180 188 174 190 190 188 190 187 183 180 199 207 215
108 106 89 61 72 135 147 162 236 134 127 108 61 221 180 150 147 146 139 140 146 150 165 162 146 116 46 182 184 177 182 190 186 194 191 193 187 187 191 192 186 190 187 187 192 199 170 176 177 176 183 188 200 184 192 185 187 193 182 192 203 221 216
36 64 68 60 52 37 62 144 130 98 96 90 86 5 48 40 37 41 37 26 25 34 45 78 155 175 165 153 109 336 201 187 193 194 192 199 195 192 188 191 188 189 186 188 197 195 182 176 179 178 178 189 205 210 192 189 189 193 185 193 208 217 216
44 50 58 60 53 51 39 44 67 67 86 95 97 90 88 86 79 81 82 90 85 79 37 301 352 102 131 111 130 98 348 229 190 191 203 202 207 197 191 193 192 182 192 194 195 191 187 184 183 179 181 189 193 214 211 195 194 196 188 194 200 208 220
49 51 54 58 58 52 56 51 50 68 65 71 86 91 93 106 123 127 142 151 145 143 164 177 203 193 173 114 137 203 199 288 148 193 198 211 212 208 198 195 197 186 190 199 190 185 192 189 191 179 189 190 193 204 212 200 200 198 192 197 200 206 217
56 56 53 56 58 57 54 50 47 46 56 66 71 75 105 110 110 118 78 70 110 140 168 172 159 127 110 143 153 274 262 261 247 178 188 206 208 216 208 205 199 194 196 196 199 191 185 190 192 191 187 198 197 199 208 199 198 199 201 198 202 206 210
60 63 62 65 64 59 59 64 62 56 55 58 57 54 66 99 114 116 120 139 155 142 136 139 138 144 155 152 141 112 69 337 331 316 63 49 7 303 280 226 203 194 199 198 204 198 195 183 187 197 197 201 202 194 202 201 193 200 206 205 197 204 212
71 63 63 64 67 60 56 55 54 59 61 63 59 47 41 80 97 95 120 123 97 64 118 137 137 126 100 77 122 129 119 115 20 289 254 140 163 152 111 23 344 284 200 193 202 207 200 195 188 188 198 202 201 202 202 205 198 195 204 208 213 209 206
94 80 70 68 64 61 59 56 50 49 52 55 59 53 48 46 58 64 68 96 136 184 162 137 141 140 138 142 127 121 125 121 180 256 271 152 145 148 152 170 158 8 325 227 194 201 208 201 199 189 187 199 203 206 199 202 210 205 201 207 206 211 215
82 81 76 68 66 63 63 63 57 52 47 59 64 58 51 49 45 49 59 64 97 122 177 172 154 151 148 146 165 180 171 154 151 179 236 190 167 175 188 170 171 152 355 325 248 198 203 207 194 195 189 192 199 204 203 199 207 208 208 211 216 212 216
69 72 75 72 65 62 59 59 63 62 59 60 63 67 63 52 50 47 45 41 50 57 47 79 98 146 155 161 172 160 142 144 158 171 198 196 178 182 202 206 205 189 190 259 320 288 214 206 198 195 196 193 196 200 203 207 206 207 207 206 212 219 226
68 59 57 67 76 70 62 53 41 39 53 57 48 41 79 72 53 53 48 37 40 43 47 58 55 40 60 120 141 138 146 165 179 185 191 188 191 193 192 206 210 199 192 206 244 291 297 238 212 199 198 200 197 198 204 208 207 201 205 208 209 212 220
75 66 57 46 44 61 69 64 49 42 49 57 47 35 38 55 61 54 49 50 47 41 41 56 44 28 23 46 84 124 142 173 179 183 189 187 191 190 197 211 241 234 208 200 209 233 261 293 253 221 197 201 202 203 206 207 207 198 200 206 211 211 214
82 69 56 44 42 41 45 67 74 57 50 61 62 48 34 48 59 53 59 57 56 53 53 51 55 46 34 15 32 58 67 136 173 196 194 195 191 188 186 198 227 261 269 243 233 218 223 277 336 299 251 202 200 208 208 211 208 205 201 205 209 211 212
99 88 74 53 38 31 26 34 58 66 54 67 78 58 40 31 52 50 73 73 59 60 58 56 53 55 42 45 36 30 22 20 39 11 295 219 183 205 230 231 201 207 249 295 286 231 235 227 271 297 320 304 237 214 209 212 213 208 208 209 210 210 207
111 106 91 75 45 26 19 20 39 55 45 50 68 61 39 28 26 42 59 72 59 49 57 59 68 63 51 36 24 29 14 14 40 27 355 356 275 248 248 230 239 211 189 342 297 288 241 241 240 242 264 283 300 259 234 227 211 211 216 217 214 215 207
98 104 102 90 71 29 14 9 45 65 49 35 68 78 60 38 18 36 53 82 79 59 43 39 45 59 62 49 34 21 11 5 1 14 5 340 327 312 301 312 306 293 242 158 269 294 303 293 283 268 267 265 273 295 288 267 249 222 221 221 223 217 213
93 104 103 95 89 64 12 357 14 65 59 29 66 90 84 56 33 27 30 58 86 79 65 51 44 33 26 34 33 29 17 7 11 25 20 3 6 11 9 356 354 343 344 301 230 207 286 307 311 332 332 326 326 308 293 297 294 280 212 229 233 227 236
73 77 74 72 63 61 27 8 5 41 46 18 23 95 94 77 53 29 27 34 48 69 53 50 52 66 55 22 6 33 26 15 14 17 22 31 16 4 353 350 358 357 341 319 310 293 238 235 291 288 284 291 296 288 295 288 298 311 324 276 261 246 244
53 67 70 52 32 47 30 16 13 17 44 22 13 32 76 81 65 39 19 19 31 52 51 28 12 21 26 10 2 43 30 8 6 2 1 25 31 8 3 349 343 308 298 282 295 290 296 274 229 256 267 271 275 294 287 288 300 316 316 321 337 315 292
56 49 51 47 31 30 40 28 13 11 34 20 12 17 34 52 52 45 14 8 23 31 41 21 350 358 357 354 349 30 80 20 359 348 343 357 15 348 330 314 304 314 303 284 264 273 262 257 240 247 265 250 248 269 276 283 296 307 339 7 64 118 134
57 51 45 47 45 27 22 22 15 14 19 14 17 18 25 41 39 30 18 7 27 12 32 4 353 348 341 339 333 332 52 113 349 312 312 296 257 288 306 308 309 284 264 284 281 264 260 251 237 239 245 232 240 262 273 273 275 61 65 44 40 109 123
49 35 35 38 45 33 19 14 12 4 2 5 28 19 13 24 22 359 11 5 29 357 5 1 349 326 330 318 330 353 338 305 252 242 243 269 273 291 291 285 303 300 282 263 275 275 273 265 273 267 262 247 231 234 246 303 56 48 39 56 231 173 159
53 41 32 38 46 27 18 14 0 352 350 14 16 8 5 5 1 353 6 24 7 345 352 338 326 320 305 293 344 356 325 318 292 253 245 247 251 253 269 275 278 291 314 323 309 287 279 268 249 240 247 259 232 213 228 99 117 159 217 243 232 222 187
67 43 39 43 55 35 8 7 350 346 358 12 6 1 356 358 353 357 358 14 343 342 335 333 339 349 349 357 359 331 316 308 313 313 277 251 246 256 263 269 256 223 231 310 335 315 301 286 264 250 260 270 265 200 136 160 199 210 222 232 236 250 197
94 75 57 53 49 29 7 0 349 348 1 5 358 355 351 353 355 349 354 345 336 341 360 2 355 347 344 339 326 314 299 308 321 318 313 291 242 249 259 261 244 240 207 212 264 251 263 281 266 245 242 250 256 258 235 228 223 236 251 264 313 236 218
85 81 67 58 55 36 31 356 353 355 355 352 352 344 342 343 353 344 338 338 351 351 9 1 349 337 328 322 321 317 318 325 315 305 296 309 300 249 247 252 257 237 219 221 241 245 252 278 286 260 223 238 240 249 260 262 260 260 271 283 265 271 263
107 105 108 91 76 77 52 12 351 338 341 336 336 341 338 353 337 331 331 346 345 344 359 342 336 330 327 325 320 316 314 304 298 294 296 296 294 292 272 251 246 255 235 216 235 257 257 233 13 352 315 287 281 278 270 271 282 291 277 243 260 279 255
118 113 117 112 102 75 55 15 349 336 341 319 322 309 312 309 321 320 334 330 337 345 346 334 329 331 327 316 308 298 293 291 293 297 297 296 294 300 323 325 276 251 270 255 248 239 244 275 252 234 249 268 260 273 277 274 284 276 288 287 280 282 272
111 118 109 88 77 67 53 14 342 315 297 289 280 289 295 299 301 330 326 336 327 339 337 321 337 338 330 324 321 310 305 298 293 294 306 325 323 329 334 332 353 346 324 302 277 213 260 265 267 252 238 249 248 259 273 268 249 235 194 196 197 229 271
95 85 83 88 80 70 27 324 286 280 293 323 359 358 353 348 345 338 332 319 318 325 319 329 325 328 319 323 321 322 329 335 332 328 323 322 329 331 326 330 331 316 309 309 312 304 260 244 259 254 266 273 260 241 254 261 258 176 178 217 234 238 232
94 90 88 83 75 40 293 275 302 2 11 5 357 352 349 337 328 326 325 325 313 321 323 313 297 283 281 297 302 318 325 327 324 324 320 309 298 299 300 299 300 298 296 278 271 281 295 291 265 273 263 238 275 261 238 252 269 278 271 261 254 253 255
89 90 80 60 49 292 288 41 27 19 353 345 337 331 319 314 310 304 299 303 305 299 290 299 307 298 281 273 273 305 312 311 316 319 316 316 309 300 308 312 314 310 300 298 295 295 286 278 272 268 271 263 246 262 290 281 276 271 272 274 272 270 283